DL8NDG-13 Weather Reports


Display with metric or nautical units.
time (UTC)temp
F
wind
direction
speed
MPH
gust
MPH
rain 1hr
in
rain 24hr
in
rain mn
in
humidity
%
barometer
mb
20260510144521 77 30 0.0 1.0 0.00 0.00 0.00 42 1006.4
20260510143013 75 51 0.0 1.0 0.00 0.00 0.00 40 1006.7
20260510141513 76 47 0.0 0.0 0.00 0.00 0.00 40 1006.8
20260510140010 78 69 0.0 5.0 0.00 0.00 0.00 38 1006.9
20260510134507 78 82 0.0 11.0 0.00 0.00 0.00 39 1007.2
20260510133005 76 51 6.0 12.0 0.00 0.00 0.00 41 1007.3
20260510131503 77 74 0.0 1.0 0.00 0.00 0.00 37 1007.5
20260510130001 76 74 0.0 1.0 0.00 0.00 0.00 38 1007.8
20260510124612 77 78 0.0 1.0 0.00 0.00 0.00 39 1007.9
20260510123058 76 22 0.0 1.0 0.00 0.00 0.00 40 1008.0
20260510121553 76 104 0.0 1.0 0.00 0.00 0.00 39 1008.3
20260510120053 74 63 0.0 1.0 0.00 0.00 0.00 42 1008.6
20260510114549 74 104 0.0 0.0 0.00 0.00 0.00 40 1008.8
20260510113058 75 86 0.0 1.0 0.00 0.00 0.00 39 1008.9
20260510111603 74 82 0.0 1.0 0.00 0.00 0.00 43 1009.1
20260510110042 74 74 0.0 13.0 0.00 0.00 0.00 44 1009.2
20260510104556 74 53 0.0 6.0 0.00 0.00 0.00 46 1009.4
20260510103038 74 77 4.0 11.0 0.00 0.00 0.00 47 1009.7
20260510101533 73 75 4.0 9.0 0.00 0.00 0.00 49 1010.0
20260510100034 73 73 3.0 8.0 0.00 0.00 0.00 52 1010.0
20260510094530 71 71 3.0 11.0 0.00 0.00 0.00 54 1010.0
20260510093025 71 86 4.0 10.0 0.00 0.00 0.00 52 1010.1
20260510091541 70 100 4.0 11.0 0.00 0.00 0.00 57 1010.2
20260510090016 68 93 2.0 8.0 0.00 0.00 0.00 60 1010.5
20260510084511 67 86 2.0 7.0 0.00 0.00 0.00 60 1010.7
20260510083008 65 74 1.0 11.0 0.00 0.00 0.00 64 1010.8
20260510081509 64 74 0.0 0.0 0.00 0.00 0.00 69 1011.0
20260510080042 62 95 0.0 0.0 0.00 0.00 0.00 71 1011.1
20260510074533 61 75 0.0 0.0 0.00 0.00 0.00 71 1011.3
20260510073036 59 64 0.0 0.0 0.00 0.00 0.00 75 1011.2
20260510071533 58 53 0.0 0.0 0.00 0.00 0.00 77 1011.4
20260510070025 57 51 0.0 0.0 0.00 0.00 0.00 79 1011.5
20260510064542 56 21 0.0 0.0 0.00 0.00 0.00 81 1011.8
20260510063019 54 5 0.0 0.0 0.00 0.00 0.00 82 1011.9
20260510061528 53 23 0.0 0.0 0.00 0.00 0.00 84 1011.9
20260510060026 52 9 0.0 0.0 0.00 0.00 0.00 85 1011.9
20260510054513 52 5 0.0 0.0 0.00 0.00 0.00 86 1012.1
20260510053011 50 5 0.0 0.0 0.00 0.00 0.00 86 1012.1
20260510051508 49 5 0.0 0.0 0.00 0.00 0.00 87 1012.2
20260510050007 48 5 0.0 0.0 0.00 0.00 0.00 87 1012.2
20260510044503 47 5 0.0 0.0 0.00 0.00 0.00 87 1012.3
20260510043101 47 5 0.0 0.0 0.00 0.00 0.00 87 1012.5
20260510041607 47 5 0.0 0.0 0.00 0.00 0.00 87 1012.4
20260510040058 47 5 0.0 0.0 0.00 0.00 0.00 87 1012.3
20260510034603 47 9 0.0 0.0 0.00 0.00 0.00 86 1012.3
20260510033057 48 55 0.0 0.0 0.00 0.00 0.00 86 1012.4
20260510031603 48 59 0.0 0.0 0.00 0.00 0.00 86 1012.4
20260510030100 47 59 0.0 0.0 0.00 0.00 0.00 86 1012.5
20260510024553 48 55 0.0 0.0 0.00 0.00 0.00 86 1012.6
20260510023049 48 55 0.0 0.0 0.00 0.00 0.00 86 1012.6
20260510021548 48 55 0.0 0.0 0.00 0.00 0.00 85 1012.7
20260510020045 49 55 0.0 0.0 0.00 0.00 0.00 84 1012.7
20260510014543 49 55 0.0 0.0 0.00 0.00 0.00 84 1012.8
20260510013050 50 55 0.0 0.0 0.00 0.00 0.00 84 1013.0
20260510011538 50 61 0.0 0.0 0.00 0.00 0.00 83 1012.9
20260510010037 51 59 0.0 0.0 0.00 0.00 0.00 82 1012.9
20260510004534 51 59 0.0 0.0 0.00 0.00 0.00 82 1013.2
20260510003044 52 59 0.0 0.0 0.00 0.00 0.00 81 1013.3
20260510001530 52 55 0.0 0.0 0.00 0.00 0.00 82 1013.3
20260510000031 52 55 0.0 0.0 0.00 0.00 0.00 82 1013.6
20260509234536 52 55 0.0 0.0 0.00 0.00 0.00 82 1013.7
20260509233039 52 53 0.0 0.0 0.00 0.00 0.00 82 1013.7
20260509231525 52 53 0.0 0.0 0.00 0.00 0.00 81 1014.1
20260509230021 53 53 0.0 0.0 0.00 0.00 0.00 81 1014.3
20260509224518 53 53 0.0 0.0 0.00 0.00 0.00 80 1014.3
20260509223017 54 60 0.0 0.0 0.00 0.00 0.00 79 1014.3
20260509221511 55 53 0.0 0.0 0.00 0.00 0.00 78 1014.2
20260509220016 55 53 0.0 0.0 0.00 0.00 0.00 77 1014.2
20260509214509 56 57 0.0 0.0 0.00 0.00 0.00 76 1014.2
20260509213008 57 54 0.0 0.0 0.00 0.00 0.00 76 1014.0
20260509211506 58 54 0.0 0.0 0.00 0.00 0.00 75 1014.2
20260509210007 59 53 0.0 0.0 0.00 0.00 0.00 73 1014.4
20260509204508 59 53 0.0 0.0 0.00 0.00 0.00 72 1014.4
20260509203006 60 57 0.0 0.0 0.00 0.00 0.00 72 1014.5
20260509201503 60 54 0.0 0.0 0.00 0.00 0.00 70 1014.4
20260509200004 61 53 0.0 0.0 0.00 0.00 0.00 69 1014.3
20260509194506 62 53 0.0 0.0 0.00 0.00 0.00 68 1014.3
20260509193002 62 58 0.0 0.0 0.00 0.00 0.00 67 1014.2
20260509191501 63 54 0.0 0.0 0.00 0.00 0.00 66 1014.1
20260509190000 64 53 0.0 0.0 0.00 0.00 0.00 64 1013.9
20260509184610 64 53 0.0 0.0 0.00 0.00 0.00 63 1013.9
20260509183100 65 53 0.0 0.0 0.00 0.00 0.00 62 1013.9
20260509181604 66 53 0.0 0.0 0.00 0.00 0.00 60 1013.8
20260509180105 67 54 0.0 0.0 0.00 0.00 0.00 58 1013.8
20260509174658 68 44 0.0 0.0 0.00 0.00 0.00 57 1013.9
20260509173101 68 44 0.0 0.0 0.00 0.00 0.00 55 1013.9
20260509171555 69 38 0.0 0.0 0.00 0.00 0.00 53 1013.8
20260509164553 70 42 0.0 0.0 0.00 0.00 0.00 52 1013.8
20260509163103 71 45 0.0 0.0 0.00 0.00 0.00 52 1013.8
20260509161555 72 60 0.0 0.0 0.00 0.00 0.00 51 1013.9
20260509160047 72 58 0.0 0.0 0.00 0.00 0.00 51 1014.2
20260509154548 72 36 0.0 0.0 0.00 0.00 0.00 51 1014.3
20260509153046 72 41 0.0 0.0 0.00 0.00 0.00 49 1014.3
20260509151542 72 30 0.0 0.0 0.00 0.00 0.00 51 1014.6
20260509150043 71 29 0.0 0.0 0.00 0.00 0.00 50 1014.7